Location: Fort Worth, Tx
(32.7431°N, 97.3695°W)
Time: 14:24:21
(UTC-04:00)

Tiros 1 - Pass Details

Date: 29 February 2024
Orbit: 625 x 657 km, 48.4° (Epoch: 11 April)

Event Time Altitude Azimuth Distance (km) Brightness Sun altitude
Rises 21:48:34 0° 277° (W) 2,967 11.7 -30.5°
Reaches altitude 10° 21:51:34 10° 296° (WNW) 2,061 10.6 -31.2°
Maximum altitude 21:54:51 18° 340° (NNW) 1,586 9.4 -31.8°
Enters shadow 21:54:54 18° 341° (NNW) 1,587 9.4 -31.8°
